Content
SEND FEEDBACK

Daily
Averages
Monthly
Summary
United States of America

ST. LOUIS, MISSOURI


Home > North America > United States > Missouri
Elevation: 163 meters     Latitude: 38 45N     Longitude: 090 22W

WEATHER
 
SELECT A DAY
Number of Records: 201,234;   Date Range: 1/1/95 - 12/18/14
 
SHARE

PRINT THIS DATA

[ ← Previous Day ]
WEATHER ALMANAC - 1 SEPTEMBER, 2013
[ Next Day → ]
[ °F ]   °C
Weather ElementAverageHighLow
Temperature27.8 °C32.2 °C (11:54 am)22.2 °C (6:54 am)
Dewpoint21.8 °C23.3 °C (8:54 am)19.4 °C (4:54 pm)
Humidity71.1 %93 % (5:54 am)46 % (4:54 pm)
Barometer1008.5 hPa1009.8 hPa (11:54 pm)1007.5 hPa (1:54 am)
Wind Speed5.8 km/h20.4 km/h (1:41 pm)
Weather ElementAverage
Visibility16.1 km
Wind DirectionENE (80.8 °)

Weather ElementTotal
Precipitation---
Cooling Degree Days8.9 (Base 18.3)
Growing Degree Days17.2 (Base 10)
Averaged from 26 records on 1 September, 2013
WEATHER CONDITIONS BREAKOUT
WIND DIRECTION BREAKOUT
WEATHER BY HOUR - 1 SEPTEMBER, 2013
[ °F ]   °C
Local TimeTemperatureDewpointHumidityBarometerVisibilityWind DirectionWind SpeedGust SpeedPrecipitationEventsConditions
1:54 AM24.4 °C21.1 °C82 %1007.5 hPa16.1 kmCalmClear
2:54 AM23.3 °C21.1 °C87 %1007.5 hPa16.1 kmCalmClear
3:54 AM22.8 °C21.1 °C90 %1007.5 hPa16.1 kmCalmClear
4:54 AM23.3 °C21.7 °C91 %1007.8 hPa16.1 kmCalmClear
5:54 AM22.8 °C21.7 °C93 %1007.8 hPa16.1 kmCalmClear
6:54 AM22.2 °C20.6 °C91 %1008.1 hPa16.1 kmCalmScattered Clouds
7:54 AM25 °C22.2 °C84 %1008.5 hPa16.1 kmWNW (290°)5.6 km/hScattered Clouds
8:54 AM27.2 °C23.3 °C79 %1008.1 hPa16.1 kmCalmScattered Clouds
9:54 AM29.4 °C22.8 °C67 %1008.5 hPa16.1 kmWNW (290°)14.8 km/hScattered Clouds
10:54 AM31.1 °C22.2 °C59 %1008.1 hPa16.1 kmVariable7.4 km/hMostly Cloudy
11:54 AM32.2 °C22.2 °C55 %1008.5 hPa16.1 kmVariable7.4 km/hMostly Cloudy
12:54 PM31.1 °C22.8 °C61 %1008.5 hPa16.1 kmWSW (250°)14.8 km/hMostly Cloudy
1:24 PM31 °C22 °C58 %1009.5 hPa16.1 kmWest (270°)16.7 km/hThunderstormMostly Cloudy
1:41 PM31 °C22 °C58 %1009.1 hPa16.1 kmWest (260°)20.4 km/hPartly Cloudy
1:54 PM31.1 °C22.2 °C59 %1008.5 hPa16.1 kmWest (270°)11.1 km/hOvercast
2:54 PM31.7 °C21.7 °C55 %1007.8 hPa16.1 kmNW (320°)5.6 km/hMostly Cloudy
3:21 PM32 °C21 °C52 %1008.1 hPa16.1 kmENE (60°)14.8 km/hClear
3:54 PM32.2 °C22.2 °C55 %1007.5 hPa16.1 kmVariable9.3 km/hClear
4:54 PM32.2 °C19.4 °C46 %1007.8 hPa16.1 kmENE (70°)13 km/hMostly Cloudy
5:54 PM31.7 °C21.1 °C53 %1007.8 hPa16.1 kmCalmScattered Clouds
6:54 PM30.6 °C21.7 °C59 %1008.1 hPa16.1 kmNNE (20°)7.4 km/hScattered Clouds
7:54 PM26.7 °C22.8 °C79 %1008.8 hPa16.1 kmCalmScattered Clouds
8:54 PM26.1 °C22.2 °C79 %1009.5 hPa16.1 kmCalmOvercast
9:54 PM26.1 °C21.7 °C77 %1009.5 hPa16.1 kmCalmClear
10:54 PM23.9 °C21.7 °C87 %1009.5 hPa16.1 kmCalmPartly Cloudy
11:54 PM22.8 °C21.7 °C93 %1009.8 hPa16.1 kmCalmClear
Hourly data recorded from KSUS, located 0 kilometers away from St. Louis, Missouri







STORIES FROM OUR PARTNERS